Amateur radio
NORAD ID: 28898
Int'l Code: 2005-043G
Perigee: 688.7 km
Apogee: 717.8 km
Inclination: 97.9 °
Period: 98.7 minutes
Semi major axis: 7074 km
Launch date: October 27, 2005
Source: Germany (GER)
Two Line Element Set (TLE):
1 28898U 05043G 13143.68685262 .00000360 00000-0 85500-4 0 5236
2 28898 097.8561 349.6007 0020598 176.7896 232.5572 14.59088706403124
Source:
NASA's NSSDC Master Catalog entry for MOZ.5/SAFIR/RUBIN 5/SL-8